OPS 4682 DEB, 18675

Orbit data source: Space-Track

OPS 4682 DEB, 18675 is space debris in LEO originally from a launch on Sat, 03 Apr 1965 UTC launched from the Air Force Western Test Range (AFWTR). Debris objects in space refer to the collection of defunct objects orbiting the Earth. Examples of debris include non-operational satellites, rocket bodies, and fragments generated from explosions, collisions, or faulty payload assembly.

Loading next visibility...
Identifier
18675, 1965-027AH
Orbit
LEO
Country
Flag of USUS
Related business
Manufacturer
Unknown
Mission
Spacecraft
Bus & Motor
Unknown
Mass
Unknown
Launch date (UTC)
1965-04-03 (61 years ago)
Launch vehicle
Unknown
Launch site
Air Force Western Test Range (AFWTR)
Object type
Payload
Rocket body
Debris
Shape & HBR
Unknown shape, 0.1 m
Radar Cross Section
Small (<0.1 m²)

Expand to show TLE details & history
Last TLE update: 8 hours ago

TLE from 8 hours ago
0 OPS 4682 DEB
1 18675U 65027AH  26036.14290986 -.00000297  00000-0 -10148-2 0  9999
2 18675  90.2434 351.5100 0023464 260.4537 115.7604 12.99728907841441
Epoch: 2026-02-05T03:25Z
TLE epoch observation values (Epoch: 2026-02-05T03:25:47.411Z)
Latitude
16.43791°
Longitude
164.69163°
Altitude
1,273.227 km
Speed
7.217 km/s
True Right ascension
23h 25m 45s
True Declination
16° 21' 04"
Sunlit
Object was in daylight at epoch
Visualization orbit readout
Latitude
Unknown
Longitude
Unknown
Altitude
Unknown
Speed
Unknown
Apparent Right ascension
Unknown
Apparent Declination
Unknown
Sunlit
N/A
Visualization observer readout
Local Sidereal Time
13:36:01
Azimuth
Unknown
Elevation
Unknown
Doppler factor
Unknown
Orbital elements
Apogee altitude
1,278.199 km
Perigee altitude
1,242.354 km
Semi-major axis
7,638.413 km
Eccentricity
0.00235
Inclination
90.2434°
RAAN
351.51°
Arg. of periapsis
260.4537°
True anomaly
116.00225°
Mean anomaly
115.7604°
Eccentric anomaly
115.88135°
Mean motion
3.25116 °/min
Orbital period
110.73 mins
BSTAR
-0.0010148
Loading maneuver chart data...
Computing Atmospheric mass density...
Loading historical data...
Loading historical data...
Loading historical data...
Loading historical data...
Loading historical data...
Loading historical data...
Loading historical data...

Documentation

Showing up to 5 results
|